Location: Hurecourt
(47.9030°N, 6.0653°E)
Time: 20:57:50
(UTC+00:00)

NPP - Pass Details

Date: 14 July 2020
Orbit: 826 x 828 km, 98.7° (Epoch: 14 August)

Event Time Altitude Azimuth Distance (km) Brightness Sun altitude
Rises 01:17:45 0° 16° (NNE) 3,378 8.5 -17.2°
Reaches altitude 10° 01:20:08 10° 19° (NNE) 2,440 7.4 -17.0°
Maximum altitude 01:25:32 70° 103° (ESE) 878 3.8 -16.7°
Enters shadow 01:28:52 24° 183° (S) 1,657 4.7 -16.4°
